Wilmington, DE

1:06 PM EDT on July 28, 2017 (GMT -0400)
New Castle County

Weather History for KILG - December, 2013

Change the Weather History Date:

Friday, December 6, 2013

  Actual Average Record
Temperature  
Mean Temperature 50 °F 40 °F  
Max Temperature 63 °F 48 °F 72 °F (2001)
Min Temperature 37 °F 31 °F 15 °F (1940)
Degree Days  
Heating Degree Days 15 26  
Month to date heating degree days 114 148  
Since 1 July heating degree days 1035 1046  
Cooling Degree Days 0 0  
Month to date cooling degree days 0 0  
Year to date cooling degree days 1241 1145  
Moisture  
Dew Point 48 °F    
Average Humidity 92    
Maximum Humidity 100    
Minimum Humidity 83    
Precipitation  
Precipitation 0.77 in 0.13 in 2.20 in (1908)
Month to date precipitation 0.77 0.75  
Year to date precipitation 43.90 40.35  
Snow  
Snow 0.00 in 0.10 in 6.00 in (1910)
Month to date snowfall 0.0 0.5  
Since 1 July snowfall T 0.9  
Snow Depth 0.00 in    
Sea Level Pressure  
Sea Level Pressure 30.03 in    
Wind  
Wind Speed 10 mph (North)    
Max Wind Speed 22 mph    
Max Gust Speed 26 mph    
Visibility 6 miles    
Events Rain    
T = Trace of Precipitation, MM = Missing Value Source: NWS Daily Summary

Daily Weather History Graph

Daily Weather History Graph

Search for Another Location

Airport or City:

Trip Planner

Search our weather history database for the weather conditions in past years. The results will help you decide how hot, cold, wet, or windy it might be!

Date:

Astronomy

Dec. 06, 2013 Rise Set
Actual Time 7:09 AM EST 4:37 PM EST
Civil Twilight 6:39 AM EST 5:08 PM EST
Nautical Twilight 6:05 AM EST 5:41 PM EST
Astronomical Twilight 5:32 AM EST 6:14 PM EST
Moon 10:13 AM EST (12/6) 9:06 PM EST (12/6)
Length of Visible Light 10h 29m
Length of Day
9h 28m
Waxing Crescent, 19% of the Moon is Illuminated
Dec 6
Waxing Crescent
Dec 9
First Quarter
Dec 17
Full
Dec 25
Last Quarter
Jan 1
New

Hourly Weather History & Observations

Time (EST) Temp. Windchill Dew Point Humidity Pressure Visibility Wind Dir Wind Speed Gust Speed Precip Events Conditions
12:49 AM 57.2 °F - 55.4 °F 94% 29.94 in 3.0 mi SSE 6.9 mph - N/A   Overcast
12:51 AM 57.0 °F - 55.9 °F 96% 29.94 in 3.0 mi SSE 6.9 mph - N/A   Overcast
12:58 AM 55.4 °F - 55.4 °F 100% 29.94 in 2.5 mi SSE 5.8 mph - N/A   Overcast
1:17 AM 57.2 °F - 55.4 °F 94% 29.93 in 3.0 mi SSE 5.8 mph - N/A   Overcast
1:28 AM 57.2 °F - 57.2 °F 100% 29.93 in 4.0 mi South 5.8 mph - N/A   Overcast
1:51 AM 62.1 °F - 60.1 °F 93% 29.94 in 6.0 mi SSW 6.9 mph - 0.00 in Rain Light Rain
2:13 AM 62.6 °F - 60.8 °F 94% 29.93 in 8.0 mi South 9.2 mph - 0.01 in Rain Light Rain
2:41 AM 62.6 °F - 60.8 °F 94% 29.92 in 7.0 mi SSW 9.2 mph - 0.02 in Rain Light Rain
2:51 AM 63.0 °F - 61.0 °F 93% 29.91 in 8.0 mi South 10.4 mph - 0.02 in Rain Light Rain
3:11 AM 60.8 °F - 59.0 °F 94% 29.90 in 6.0 mi SSE 9.2 mph - 0.00 in   Overcast
3:20 AM 60.8 °F - 59.0 °F 94% 29.89 in 5.0 mi SSE 9.2 mph - 0.00 in   Overcast
3:51 AM 63.0 °F - 61.0 °F 93% 29.90 in 8.0 mi SSW 12.7 mph - 0.00 in   Overcast
4:51 AM 62.1 °F - 61.0 °F 96% 29.91 in 5.0 mi SSW 9.2 mph 18.4 mph 0.10 in Rain Light Rain
5:51 AM 62.1 °F - 61.0 °F 96% 29.91 in 6.0 mi SSW 12.7 mph - 0.00 in   Overcast
6:51 AM 62.1 °F - 61.0 °F 96% 29.93 in 5.0 mi SSW 5.8 mph - 0.04 in Rain Light Rain
7:30 AM 62.6 °F - 60.8 °F 94% 29.94 in 2.5 mi WNW 8.1 mph - 0.01 in Rain Light Rain
7:42 AM 60.8 °F - 60.8 °F 100% 29.95 in 1.8 mi NW 10.4 mph - 0.02 in Rain Light Rain
7:51 AM 59.0 °F - 57.0 °F 93% 29.96 in 2.5 mi NW 18.4 mph 24.2 mph 0.02 in Rain Light Rain
8:00 AM 57.2 °F - 55.4 °F 94% 29.98 in 5.0 mi NNW 15.0 mph 26.5 mph 0.00 in Rain Light Rain
8:42 AM 53.6 °F - 50.0 °F 88% 29.99 in 10.0 mi North 16.1 mph - 0.00 in   Overcast
8:51 AM 53.1 °F - 48.9 °F 86% 30.01 in 10.0 mi NNW 13.8 mph - 0.00 in Rain Light Rain
9:51 AM 50.0 °F - 46.9 °F 89% 30.06 in 10.0 mi NNW 13.8 mph - 0.02 in   Overcast
10:30 AM 50.0 °F - 46.4 °F 87% 30.06 in 7.0 mi North 10.4 mph - 0.00 in   Overcast
10:51 AM 48.9 °F - 46.0 °F 90% 30.07 in 10.0 mi North 10.4 mph - 0.00 in   Overcast
11:51 AM 48.9 °F - 45.0 °F 86% 30.06 in 10.0 mi North 9.2 mph - N/A   Overcast
12:22 PM 48.2 °F - 46.4 °F 93% 30.04 in 10.0 mi North 8.1 mph - 0.00 in Rain Light Rain
12:29 PM 48.2 °F - 46.4 °F 93% 30.05 in 10.0 mi NNW 9.2 mph - 0.00 in Rain Light Rain
12:51 PM 48.0 °F - 45.0 °F 89% 30.05 in 10.0 mi North 11.5 mph - 0.01 in Rain Light Rain
1:32 PM 48.2 °F - 44.6 °F 87% 30.01 in 5.0 mi NE 9.2 mph - 0.04 in Rain Light Rain
1:51 PM 48.0 °F - 45.0 °F 89% 30.03 in 10.0 mi NE 6.9 mph - 0.04 in Rain Light Rain
2:49 PM 48.2 °F - 44.6 °F 87% 30.05 in 10.0 mi NNW 9.2 mph - 0.00 in   Overcast
2:51 PM 46.9 °F - 44.1 °F 90% 30.06 in 10.0 mi NNW 11.5 mph - 0.00 in Rain Light Rain
3:15 PM 46.4 °F 41.9 °F 42.8 °F 87% 30.04 in 10.0 mi North 9.2 mph - 0.01 in Rain Light Rain
3:40 PM 46.4 °F 41.9 °F 42.8 °F 87% 30.05 in 4.0 mi North 9.2 mph - 0.03 in Rain Light Rain
3:51 PM 46.0 °F 42.5 °F 43.0 °F 89% 30.06 in 10.0 mi North 6.9 mph - 0.03 in Rain Light Rain
4:24 PM 44.6 °F 40.2 °F 42.8 °F 93% 30.06 in 2.5 mi North 8.1 mph - 0.04 in Rain Rain
4:32 PM 44.6 °F 40.7 °F 42.8 °F 93% 30.07 in 4.0 mi North 6.9 mph - 0.05 in Rain Rain
4:51 PM 45.0 °F 40.6 °F 43.0 °F 93% 30.08 in 4.0 mi North 8.1 mph - 0.10 in Rain Heavy Rain
5:15 PM 44.6 °F 40.2 °F 42.8 °F 93% 30.07 in 4.0 mi North 8.1 mph - 0.06 in Rain Light Rain
5:51 PM 44.1 °F 38.1 °F 42.1 °F 93% 30.07 in 5.0 mi North 11.5 mph - 0.08 in Rain Light Rain
6:12 PM 44.6 °F 38.8 °F 42.8 °F 93% 30.09 in 5.0 mi North 11.5 mph - 0.01 in Rain Light Rain
6:19 PM 44.6 °F 38.8 °F 41.0 °F 87% 30.08 in 5.0 mi North 11.5 mph - 0.01 in Rain Light Rain
6:26 PM 42.8 °F 37.5 °F 41.0 °F 93% 30.09 in 5.0 mi North 9.2 mph - 0.01 in Rain Light Rain
6:51 PM 43.0 °F 37.7 °F 41.0 °F 93% 30.09 in 5.0 mi North 9.2 mph - 0.02 in Rain Light Rain
7:04 PM 42.8 °F 36.2 °F 39.2 °F 87% 30.09 in 4.0 mi North 12.7 mph - 0.01 in Rain Light Rain
7:17 PM 42.8 °F 36.6 °F 39.2 °F 87% 30.11 in 5.0 mi North 11.5 mph - 0.02 in Rain Light Rain
7:51 PM 41.0 °F 36.4 °F 39.0 °F 93% 30.12 in 5.0 mi North 6.9 mph - 0.06 in Rain Light Rain
8:18 PM 39.2 °F 32.5 °F 37.4 °F 93% 30.14 in 4.0 mi North 10.4 mph - 0.02 in Rain Rain
8:27 PM 39.2 °F 33.6 °F 37.4 °F 93% 30.13 in 3.0 mi North 8.1 mph - 0.05 in Rain Rain
8:51 PM 39.0 °F 32.8 °F 37.0 °F 93% 30.12 in 8.0 mi North 9.2 mph - 0.06 in Rain Light Rain
9:36 PM 39.2 °F 32.0 °F 37.4 °F 93% 30.13 in 6.0 mi North 11.5 mph - 0.01 in Rain Light Rain
9:51 PM 39.0 °F 32.3 °F 36.0 °F 89% 30.13 in 4.0 mi North 10.4 mph - 0.03 in Rain Rain
10:15 PM 37.4 °F 30.8 °F 35.6 °F 93% 30.12 in 7.0 mi North 9.2 mph - 0.02 in Rain Light Rain
10:51 PM 37.9 °F 30.5 °F 36.0 °F 93% 30.17 in 4.0 mi NNW 11.5 mph - 0.08 in Rain Rain
11:25 PM 37.4 °F 29.8 °F 35.6 °F 93% 30.13 in 6.0 mi North 11.5 mph - 0.05 in Rain Light Rain
11:51 PM 37.9 °F 30.5 °F 35.1 °F 89% 30.15 in 10.0 mi North 11.5 mph - 0.06 in Rain Light Rain